OE6ACM-14 Weather Reports


time (UTC)temp
C
wind
direction
speed
KPH
gust
KPH
rain 1hr
cm
rain 24hr
cm
rain mn
cm
humidity
%
barometer
mb
20260507075439 23 0.0 0.0 0.00 0.00 0.00 31 922.7
20260507074939 23 0.0 0.0 0.00 0.00 0.00 29 922.7
20260507074439 21 0.0 0.0 0.00 0.00 0.00 30 922.7
20260507073939 23 0.0 0.0 0.00 0.00 0.00 27 922.7
20260507073439 26 0.0 0.0 0.00 0.00 0.00 25 922.6
20260507072939 30 0.0 0.0 0.00 0.00 0.00 21 922.4
20260507072439 30 0.0 0.0 0.00 0.00 0.00 21 922.4
20260507071939 30 0.0 0.0 0.00 0.00 0.00 21 922.4
20260507071439 31 0.0 0.0 0.00 0.00 0.00 20 922.4
20260507070939 32 0.0 0.0 0.00 0.00 0.00 20 922.4
20260507070439 30 0.0 0.0 0.00 0.00 0.00 23 922.3
20260507065939 25 0.0 0.0 0.00 0.00 0.00 28 922.4
20260507065439 23 0.0 0.0 0.00 0.00 0.00 31 922.4
20260507064939 22 0.0 0.0 0.00 0.00 0.00 34 922.3
20260507064439 20 0.0 0.0 0.00 0.00 0.00 39 922.4
20260507063939 18 0.0 0.0 0.00 0.00 0.00 43 922.5
20260507063439 17 0.0 0.0 0.00 0.00 0.00 45 922.5
20260507062939 16 0.0 0.0 0.00 0.00 0.00 46 922.5
20260507062439 15 0.0 0.0 0.00 0.00 0.00 46 922.6
20260507061939 15 0.0 0.0 0.00 0.00 0.00 48 922.6
20260507061439 15 0.0 0.0 0.00 0.00 0.00 50 922.6
20260507060939 14 0.0 0.0 0.00 0.00 0.00 48 922.5
20260507060439 14 0.0 0.0 0.00 0.00 0.00 45 922.5
20260507055939 13 0.0 0.0 0.00 0.00 0.00 45 922.4
20260507055439 13 0.0 0.0 0.00 0.00 0.00 45 922.3
20260507054939 13 0.0 0.0 0.00 0.00 0.00 46 922.4
20260507054439 13 0.0 0.0 0.00 0.00 0.00 46 922.4
20260507053939 13 0.0 0.0 0.00 0.00 0.00 47 922.4
20260507053439 13 0.0 0.0 0.00 0.00 0.00 48 922.4
20260507052939 12 0.0 0.0 0.00 0.00 0.00 48 922.4
20260507052439 12 0.0 0.0 0.00 0.00 0.00 48 922.4
20260507051939 12 0.0 0.0 0.00 0.00 0.00 49 922.4
20260507051439 12 0.0 0.0 0.00 0.00 0.00 50 922.5
20260507050939 12 0.0 0.0 0.00 0.00 0.00 52 922.5
20260507050439 12 0.0 0.0 0.00 0.00 0.00 54 922.5
20260507045939 12 0.0 0.0 0.00 0.00 0.00 54 922.5
20260507045439 12 0.0 0.0 0.00 0.00 0.00 56 922.5
20260507044939 12 0.0 0.0 0.00 0.00 0.00 55 922.4
20260507044439 12 0.0 0.0 0.00 0.00 0.00 54 922.3
20260507043939 12 0.0 0.0 0.00 0.00 0.00 55 922.2
20260507043439 11 0.0 0.0 0.00 0.00 0.00 57 922.2
20260507042939 11 0.0 0.0 0.00 0.00 0.00 59 922.2
20260507042439 11 0.0 0.0 0.00 0.00 0.00 60 922.1
20260507041939 11 0.0 0.0 0.00 0.00 0.00 62 922.1
20260507041439 11 0.0 0.0 0.00 0.00 0.00 63 922.1
20260507040939 11 0.0 0.0 0.00 0.00 0.00 64 922.2
20260507040439 11 0.0 0.0 0.00 0.00 0.00 65 922.2
20260507035939 10 0.0 0.0 0.00 0.00 0.00 66 922.2
20260507035439 10 0.0 0.0 0.00 0.00 0.00 67 922.1
20260507034939 10 0.0 0.0 0.00 0.00 0.00 66 922.0
20260507034439 10 0.0 0.0 0.00 0.00 0.00 67 922.0
20260507033939 10 0.0 0.0 0.00 0.00 0.00 68 921.9
20260507033439 10 0.0 0.0 0.00 0.00 0.00 68 921.9
20260507032939 10 0.0 0.0 0.00 0.00 0.00 69 921.9
20260507032439 10 0.0 0.0 0.00 0.00 0.00 67 921.7
20260507031939 10 0.0 0.0 0.00 0.00 0.00 65 921.7
20260507031439 10 0.0 0.0 0.00 0.00 0.00 66 921.7
20260507030939 10 0.0 0.0 0.00 0.00 0.00 66 921.7
20260507030439 11 0.0 0.0 0.00 0.00 0.00 65 921.7
20260507025939 10 0.0 0.0 0.00 0.00 0.00 67 921.7
20260507025439 10 0.0 0.0 0.00 0.00 0.00 68 921.6
20260507024939 10 0.0 0.0 0.00 0.00 0.00 68 921.7
20260507024439 10 0.0 0.0 0.00 0.00 0.00 67 921.5
20260507023939 10 0.0 0.0 0.00 0.00 0.00 67 921.4
20260507023439 10 0.0 0.0 0.00 0.00 0.00 66 921.5
20260507022939 10 0.0 0.0 0.00 0.00 0.00 66 921.5
20260507022439 10 0.0 0.0 0.00 0.00 0.00 67 921.5
20260507021939 10 0.0 0.0 0.00 0.00 0.00 67 921.5
20260507021439 10 0.0 0.0 0.00 0.00 0.00 67 921.5
20260507020939 10 0.0 0.0 0.00 0.00 0.00 68 921.5
20260507020439 10 0.0 0.0 0.00 0.00 0.00 67 921.4
20260507015939 10 0.0 0.0 0.00 0.00 0.00 68 921.4
20260507015439 10 0.0 0.0 0.00 0.00 0.00 68 921.3
20260507014939 10 0.0 0.0 0.00 0.00 0.00 66 921.3
20260507014439 10 0.0 0.0 0.00 0.00 0.00 66 921.3
20260507013939 10 0.0 0.0 0.00 0.00 0.00 66 921.2
20260507013439 10 0.0 0.0 0.00 0.00 0.00 66 921.3
20260507012939 10 0.0 0.0 0.00 0.00 0.00 65 921.3
20260507012439 11 0.0 0.0 0.00 0.00 0.00 65 921.2
20260507011939 11 0.0 0.0 0.00 0.00 0.00 65 921.1
20260507011439 10 0.0 0.0 0.00 0.00 0.00 66 921.1
20260507010939 10 0.0 0.0 0.00 0.00 0.00 66 921.1
20260507010439 11 0.0 0.0 0.00 0.00 0.00 65 921.1
20260507005939 11 0.0 0.0 0.00 0.00 0.00 63 921.0
20260507005439 11 0.0 0.0 0.00 0.00 0.00 63 920.9
20260507004939 11 0.0 0.0 0.00 0.00 0.00 64 921.0
20260507004439 11 0.0 0.0 0.00 0.00 0.00 65 921.0
20260507003939 11 0.0 0.0 0.00 0.00 0.00 65 920.9
20260507003439 11 0.0 0.0 0.00 0.00 0.00 65 920.9
20260507002939 11 0.0 0.0 0.00 0.00 0.00 63 920.8
20260507002439 11 0.0 0.0 0.00 0.00 0.00 62 920.7
20260507001939 11 0.0 0.0 0.00 0.00 0.00 63 920.7
20260507001439 11 0.0 0.0 0.00 0.00 0.00 63 920.8
20260507000939 11 0.0 0.0 0.00 0.00 0.00 63 920.7
20260507000439 11 0.0 0.0 0.00 0.00 0.00 62 920.7
20260506235939 12 0.0 0.0 0.00 0.00 0.00 61 920.7
20260506235439 12 0.0 0.0 0.00 0.00 0.00 61 920.7
20260506234939 12 0.0 0.0 0.00 0.00 0.00 61 920.7
20260506234439 12 0.0 0.0 0.00 0.00 0.00 61 920.7
20260506233939 12 0.0 0.0 0.00 0.00 0.00 60 920.7
20260506233439 12 0.0 0.0 0.00 0.00 0.00 61 920.7
20260506232939 12 0.0 0.0 0.00 0.00 0.00 61 920.6
20260506232439 12 0.0 0.0 0.00 0.00 0.00 61 920.6
20260506231939 12 0.0 0.0 0.00 0.00 0.00 61 920.6
20260506231439 12 0.0 0.0 0.00 0.00 0.00 60 920.6
20260506230939 12 0.0 0.0 0.00 0.00 0.00 60 920.6
20260506230439 12 0.0 0.0 0.00 0.00 0.00 60 920.6
20260506225939 12 0.0 0.0 0.00 0.00 0.00 59 920.6
20260506225439 12 0.0 0.0 0.00 0.00 0.00 59 920.5
20260506224939 12 0.0 0.0 0.00 0.00 0.00 60 920.4
20260506224439 12 0.0 0.0 0.00 0.00 0.00 60 920.4
20260506223939 13 0.0 0.0 0.00 0.00 0.00 59 920.5
20260506223439 12 0.0 0.0 0.00 0.00 0.00 59 920.5
20260506222939 13 0.0 0.0 0.00 0.00 0.00 58 920.5
20260506222439 13 0.0 0.0 0.00 0.00 0.00 58 920.5
20260506221939 13 0.0 0.0 0.00 0.00 0.00 58 920.5
20260506221439 13 0.0 0.0 0.00 0.00 0.00 57 920.4
20260506220939 13 0.0 0.0 0.00 0.00 0.00 57 920.3
20260506220439 13 0.0 0.0 0.00 0.00 0.00 57 920.4
20260506215939 13 0.0 0.0 0.00 0.00 0.00 57 920.4
20260506215439 13 0.0 0.0 0.00 0.00 0.00 57 920.3
20260506214939 13 0.0 0.0 0.00 0.00 0.00 56 920.2
20260506214439 13 0.0 0.0 0.00 0.00 0.00 56 920.2
20260506213939 13 0.0 0.0 0.00 0.00 0.00 55 920.1
20260506213439 13 0.0 0.0 0.00 0.00 0.00 54 920.0
20260506212939 14 0.0 0.0 0.00 0.00 0.00 54 920.0
20260506212439 14 0.0 0.0 0.00 0.00 0.00 54 920.0
20260506211939 14 0.0 0.0 0.00 0.00 0.00 54 920.1
20260506211439 14 0.0 0.0 0.00 0.00 0.00 53 920.1
20260506210939 14 0.0 0.0 0.00 0.00 0.00 53 920.0
20260506210439 14 0.0 0.0 0.00 0.00 0.00 53 920.1
20260506205939 14 0.0 0.0 0.00 0.00 0.00 53 920.1
20260506205439 14 0.0 0.0 0.00 0.00 0.00 53 920.1
20260506204939 14 0.0 0.0 0.00 0.00 0.00 54 920.1
20260506204439 14 0.0 0.0 0.00 0.00 0.00 53 920.0
20260506203939 14 0.0 0.0 0.00 0.00 0.00 53 920.0
20260506203439 14 0.0 0.0 0.00 0.00 0.00 53 920.0
20260506202939 14 0.0 0.0 0.00 0.00 0.00 53 919.9
20260506202439 14 0.0 0.0 0.00 0.00 0.00 52 919.9
20260506201939 15 0.0 0.0 0.00 0.00 0.00 51 919.7
20260506201439 15 0.0 0.0 0.00 0.00 0.00 52 919.8
20260506200939 14 0.0 0.0 0.00 0.00 0.00 52 919.7
20260506200439 15 0.0 0.0 0.00 0.00 0.00 52 919.7
20260506195939 15 0.0 0.0 0.00 0.00 0.00 52 919.8
20260506195439 15 0.0 0.0 0.00 0.00 0.00 51 919.7
20260506194939 15 0.0 0.0 0.00 0.00 0.00 51 919.6
20260506194439 15 0.0 0.0 0.00 0.00 0.00 51 919.5
20260506193939 15 0.0 0.0 0.00 0.00 0.00 50 919.5
20260506193439 15 0.0 0.0 0.00 0.00 0.00 49 919.5
20260506192939 15 0.0 0.0 0.00 0.00 0.00 49 919.4
20260506192439 15 0.0 0.0 0.00 0.00 0.00 49 919.4
20260506191939 15 0.0 0.0 0.00 0.00 0.00 50 919.4
20260506191439 15 0.0 0.0 0.00 0.00 0.00 50 919.4
20260506190939 15 0.0 0.0 0.00 0.00 0.00 50 919.3
20260506190439 15 0.0 0.0 0.00 0.00 0.00 51 919.3
20260506185939 15 0.0 0.0 0.00 0.00 0.00 52 919.2
20260506185439 15 0.0 0.0 0.00 0.00 0.00 56 919.1
20260506184939 15 0.0 0.0 0.00 0.00 0.00 55 919.0
20260506184439 15 0.0 0.0 0.00 0.00 0.00 56 918.9
20260506183939 15 0.0 0.0 0.00 0.00 0.00 55 918.8
20260506183439 15 0.0 0.0 0.00 0.00 0.00 56 918.7
20260506182939 15 0.0 0.0 0.00 0.00 0.00 55 918.6
20260506182439 15 0.0 0.0 0.00 0.00 0.00 54 918.5
20260506181939 16 0.0 0.0 0.00 0.00 0.00 53 918.5
20260506181439 16 0.0 0.0 0.00 0.00 0.00 52 918.3
20260506180939 16 0.0 0.0 0.00 0.00 0.00 51 918.3
20260506180439 16 0.0 0.0 0.00 0.00 0.00 51 918.2
20260506175939 16 0.0 0.0 0.00 0.00 0.00 51 918.1
20260506175439 16 0.0 0.0 0.00 0.00 0.00 50 918.1
20260506174939 16 0.0 0.0 0.00 0.00 0.00 49 918.1
20260506174439 16 0.0 0.0 0.00 0.00 0.00 49 918.0
20260506173939 16 0.0 0.0 0.00 0.00 0.00 48 918.0
20260506173439 16 0.0 0.0 0.00 0.00 0.00 48 918.1
20260506172939 16 0.0 0.0 0.00 0.00 0.00 48 918.1
20260506172439 16 0.0 0.0 0.00 0.00 0.00 48 918.0
20260506171939 17 0.0 0.0 0.00 0.00 0.00 47 918.2
20260506171439 17 0.0 0.0 0.00 0.00 0.00 47 918.0
20260506170939 17 0.0 0.0 0.00 0.00 0.00 46 918.0
20260506170439 17 0.0 0.0 0.00 0.00 0.00 46 917.9
20260506165939 17 0.0 0.0 0.00 0.00 0.00 46 918.0
20260506165439 17 0.0 0.0 0.00 0.00 0.00 46 918.0
20260506164939 17 0.0 0.0 0.00 0.00 0.00 45 918.0
20260506164439 17 0.0 0.0 0.00 0.00 0.00 44 918.0
20260506163939 18 0.0 0.0 0.00 0.00 0.00 44 918.0
20260506163439 18 0.0 0.0 0.00 0.00 0.00 44 918.0
20260506162939 18 0.0 0.0 0.00 0.00 0.00 44 918.1
20260506162439 18 0.0 0.0 0.00 0.00 0.00 44 918.1
20260506161939 18 0.0 0.0 0.00 0.00 0.00 43 918.1
20260506161439 18 0.0 0.0 0.00 0.00 0.00 43 918.2
20260506160939 18 0.0 0.0 0.00 0.00 0.00 43 918.2
20260506160439 18 0.0 0.0 0.00 0.00 0.00 43 918.3
20260506155939 18 0.0 0.0 0.00 0.00 0.00 44 918.3
20260506155439 18 0.0 0.0 0.00 0.00 0.00 42 918.3
20260506154939 19 0.0 0.0 0.00 0.00 0.00 41 918.4
20260506154439 20 0.0 0.0 0.00 0.00 0.00 40 918.3
20260506153939 20 0.0 0.0 0.00 0.00 0.00 39 918.3
20260506153439 19 0.0 0.0 0.00 0.00 0.00 41 918.3
20260506152939 19 0.0 0.0 0.00 0.00 0.00 40 918.4
20260506152439 20 0.0 0.0 0.00 0.00 0.00 40 918.4
20260506151939 20 0.0 0.0 0.00 0.00 0.00 39 918.4
20260506151439 20 0.0 0.0 0.00 0.00 0.00 38 918.3
20260506150939 20 0.0 0.0 0.00 0.00 0.00 39 918.4
20260506150439 19 0.0 0.0 0.00 0.00 0.00 39 918.4
20260506145939 20 0.0 0.0 0.00 0.00 0.00 37 918.3
20260506145439 21 0.0 0.0 0.00 0.00 0.00 37 918.3
20260506144939 21 0.0 0.0 0.00 0.00 0.00 37 918.3
20260506144439 20 0.0 0.0 0.00 0.00 0.00 39 918.3
20260506143939 20 0.0 0.0 0.00 0.00 0.00 39 918.4
20260506143439 20 0.0 0.0 0.00 0.00 0.00 38 918.5
20260506142939 20 0.0 0.0 0.00 0.00 0.00 38 918.5
20260506142439 20 0.0 0.0 0.00 0.00 0.00 37 918.5
20260506141939 20 0.0 0.0 0.00 0.00 0.00 38 918.5
20260506141439 21 0.0 0.0 0.00 0.00 0.00 37 918.4
20260506140939 20 0.0 0.0 0.00 0.00 0.00 38 918.5
20260506140439 20 0.0 0.0 0.00 0.00 0.00 36 918.5
20260506135939 21 0.0 0.0 0.00 0.00 0.00 36 918.6
20260506135439 22 0.0 0.0 0.00 0.00 0.00 34 918.5
20260506134939 22 0.0 0.0 0.00 0.00 0.00 34 918.5
20260506134439 22 0.0 0.0 0.00 0.00 0.00 33 918.6
20260506133939 22 0.0 0.0 0.00 0.00 0.00 34 918.6
20260506133439 22 0.0 0.0 0.00 0.00 0.00 34 918.7
20260506132939 22 0.0 0.0 0.00 0.00 0.00 33 918.6
20260506132439 22 0.0 0.0 0.00 0.00 0.00 32 918.7
20260506131939 23 0.0 0.0 0.00 0.00 0.00 33 918.7
20260506131439 21 0.0 0.0 0.00 0.00 0.00 35 918.9
20260506130939 21 0.0 0.0 0.00 0.00 0.00 34 919.0
20260506130439 22 0.0 0.0 0.00 0.00 0.00 34 918.9
20260506125939 22 0.0 0.0 0.00 0.00 0.00 33 918.9
20260506125439 22 0.0 0.0 0.00 0.00 0.00 33 919.0
20260506124939 22 0.0 0.0 0.00 0.00 0.00 33 919.1
20260506124439 22 0.0 0.0 0.00 0.00 0.00 33 919.1
20260506123939 23 0.0 0.0 0.00 0.00 0.00 30 918.9
20260506123439 24 0.0 0.0 0.00 0.00 0.00 30 919.0
20260506122939 26 0.0 0.0 0.00 0.00 0.00 28 918.8
20260506122439 25 0.0 0.0 0.00 0.00 0.00 30 918.8
20260506121939 25 0.0 0.0 0.00 0.00 0.00 30 918.8
20260506121439 25 0.0 0.0 0.00 0.00 0.00 27 918.7
20260506120939 26 0.0 0.0 0.00 0.00 0.00 26 918.6
20260506120439 26 0.0 0.0 0.00 0.00 0.00 28 918.8
20260506115939 25 0.0 0.0 0.00 0.00 0.00 28 918.9
20260506115439 25 0.0 0.0 0.00 0.00 0.00 29 918.9
20260506114939 25 0.0 0.0 0.00 0.00 0.00 28 918.8
20260506114439 24 0.0 0.0 0.00 0.00 0.00 29 918.9
20260506113939 25 0.0 0.0 0.00 0.00 0.00 28 918.8
20260506113439 25 0.0 0.0 0.00 0.00 0.00 28 918.9
20260506112939 25 0.0 0.0 0.00 0.00 0.00 28 919.1
20260506112001 26 0.0 0.0 0.00 0.00 0.00 26 919.3
20260506111501 26 0.0 0.0 0.00 0.00 0.00 26 919.3
20260506111001 26 0.0 0.0 0.00 0.00 0.00 27 919.3
20260506110501 26 0.0 0.0 0.00 0.00 0.00 26 919.3
20260506110001 25 0.0 0.0 0.00 0.00 0.00 26 919.4
20260506105501 25 0.0 0.0 0.00 0.00 0.00 28 919.5
20260506105001 25 0.0 0.0 0.00 0.00 0.00 27 919.5
20260506104501 25 0.0 0.0 0.00 0.00 0.00 28 919.4
20260506104001 22 0.0 0.0 0.00 0.00 0.00 27 919.5
20260506103501 22 0.0 0.0 0.00 0.00 0.00 30 919.6
20260506103001 21 0.0 0.0 0.00 0.00 0.00 29 919.7
20260506102501 21 0.0 0.0 0.00 0.00 0.00 28 919.7
20260506102001 21 0.0 0.0 0.00 0.00 0.00 29 919.7
20260506101501 21 0.0 0.0 0.00 0.00 0.00 29 919.8
20260506101001 22 0.0 0.0 0.00 0.00 0.00 26 919.8
20260506100501 24 0.0 0.0 0.00 0.00 0.00 27 919.8
20260506100001 22 0.0 0.0 0.00 0.00 0.00 28 919.8
20260506095501 21 0.0 0.0 0.00 0.00 0.00 28 919.9
20260506095001 21 0.0 0.0 0.00 0.00 0.00 28 919.9
20260506094501 21 0.0 0.0 0.00 0.00 0.00 26 920.0
20260506094001 22 0.0 0.0 0.00 0.00 0.00 26 919.8
20260506093501 25 0.0 0.0 0.00 0.00 0.00 24 919.7
20260506093001 26 0.0 0.0 0.00 0.00 0.00 22 919.7
20260506092501 28 0.0 0.0 0.00 0.00 0.00 21 919.7
20260506092001 26 0.0 0.0 0.00 0.00 0.00 25 919.7
20260506091501 27 0.0 0.0 0.00 0.00 0.00 23 919.8
20260506091001 29 0.0 0.0 0.00 0.00 0.00 23 919.7
20260506090501 29 0.0 0.0 0.00 0.00 0.00 24 919.7
20260506090001 26 0.0 0.0 0.00 0.00 0.00 28 920.0
20260506085501 23 0.0 0.0 0.00 0.00 0.00 30 919.9
20260506085001 22 0.0 0.0 0.00 0.00 0.00 32 920.1
20260506084501 24 0.0 0.0 0.00 0.00 0.00 28 920.0
20260506084001 27 0.0 0.0 0.00 0.00 0.00 26 919.9
20260506083501 28 0.0 0.0 0.00 0.00 0.00 24 919.9
20260506083001 28 0.0 0.0 0.00 0.00 0.00 24 920.0
20260506082501 31 0.0 0.0 0.00 0.00 0.00 21 919.9
20260506082001 31 0.0 0.0 0.00 0.00 0.00 21 919.9
20260506081501 30 0.0 0.0 0.00 0.00 0.00 22 919.9
20260506081001 29 0.0 0.0 0.00 0.00 0.00 21 919.9
20260506080501 30 0.0 0.0 0.00 0.00 0.00 21 920.0